カタログに戻る

COSMOS 397 DEB

運用中LEO
NORAD 5144·DEBRIS·🇷🇺 Russia

打ち上げ Feb 25, 1971 から Baikonur Cosmodrome

Loading…

次のパス (今後24時間)

TLE

最新Source: Space-Track

元期: Sep 14, 2026, 03:33 UTC

1 05144U 71015AG  26257.14809731  .00003611  00000-0  71784-3 0  9994
2 05144  65.7141 138.0289 0451770 340.3839  18.0330 14.14409170710874

AllMySatでCOSMOS 397 DEBをリアルタイム追跡

Download on the App Store